Temp
51 52 58 61 64 64 64 64 64 64 64 63 62 62 62 63 63 64 64 64 64 64 64 65 65 65 66 66 67 68 68 69
50 50 51 51 52 62 63 62 61 61 61 60 59 58 59 60 60 61 61 61 61 62 62 62 62 63 63 64 65 67 67 68
49 50 49 50 52 57 56 59 58 57 55 57 52 50 51 52 57 58 58 59 58 58 58 59 59 59 60 62 63 63 64 68
48 48 48 50 54 49 49 51 50 50 49 49 48 48 50 52 52 55 54 55 54 55 55 55 54 53 54 58 57 59 59 64
47 47 47 47 48 47 48 49 48 47 47 46 46 47 46 46 46 47 46 50 47 48 48 49 49 49 51 53 55 56 58 61
47 47 48 47 46 45 44 46 45 44 44 45 43 42 42 43 43 44 44 44 44 45 45 46 47 48 49 50 52 53 56 57
45 46 45 45 44 44 43 43 43 42 42 43 42 41 40 41 41 42 42 43 43 43 44 45 46 47 48 49 50 51 52 54
45 45 44 44 42 41 41 41 41 40 41 41 42 40 40 40 40 41 41 41 42 42 43 44 45 46 47 48 49 50 51 51
45 44 43 42 41 41 40 41 41 39 40 40 40 40 39 38 39 39 39 40 40 41 41 42 42 44 44 47 48 49 50 51
45 48 43 41 40 40 40 39 38 38 38 38 39 40 39 38 38 38 38 39 39 39 39 41 42 43 42 44 46 49 50 50
42 42 41 41 40 39 38 38 37 37 37 37 38 39 39 37 37 37 37 37 38 38 40 41 40 42 44 46 46 46 47 51
42 42 41 40 39 38 37 36 36 36 36 37 38 38 38 36 37 36 36 39 39 39 39 41 40 41 44 44 46 46 47 47
41 40 39 38 37 35 35 33 34 34 35 37 37 37 37 36 35 35 36 36 37 38 38 38 39 42 40 41 44 46 46 48
39 38 37 37 35 34 34 33 34 34 35 35 36 36 35 36 33 34 36 36 36 36 37 36 38 40 37 38 39 42 48 48
38 37 37 37 36 35 35 35 34 33 32 33 34 35 34 33 33 33 35 36 34 34 36 35 34 38 41 37 36 36 39 44
38 39 38 38 36 33 32 29 28 30 30 31 32 34 33 32 32 33 34 35 34 34 36 36 35 34 38 43 40 39 37 37
38 37 36 35 33 32 29 27 28 29 29 28 30 31 32 31 32 32 33 33 33 32 34 33 35 33 33 35 37 38 40 37
35 34 33 33 32 30 28 27 27 26 26 25 26 28 29 28 33 31 32 31 32 31 33 33 33 32 33 33 33 33 34 34
32 32 31 31 30 29 28 27 27 26 25 25 25 26 26 26 29 28 28 29 29 30 31 30 31 30 31 31 33 34 34 35
31 32 31 31 30 28 27 27 26 27 26 26 26 26 26 27 27 28 28 28 28 29 28 29 30 28 29 30 31 32 33 34
MSLP
1019.06 1018.88 1018.71 1018.73 1018.48 1018.47 1018.77 1018.72 1018.62 1018.30 1018.03 1017.71 1018.05 1018.19 1017.97 1017.89 1017.58 1017.39 1017.04 1016.75 1016.53 1016.16 1015.96 1015.72 1015.41 1015.04 1014.67 1014.26 1013.65 1013.28 1013.18 1013.09
1019.46 1019.32 1019.19 1019.34 1019.35 1019.05 1019.08 1018.96 1018.94 1018.70 1018.22 1018.11 1018.36 1018.59 1018.22 1017.98 1017.84 1017.68 1017.55 1017.13 1016.98 1016.67 1016.33 1015.92 1015.65 1015.33 1014.86 1014.43 1013.95 1013.12 1012.87 1012.82
1019.99 1019.87 1019.77 1019.64 1019.69 1019.69 1019.65 1019.52 1019.48 1019.06 1018.95 1018.75 1018.90 1019.09 1018.73 1018.58 1018.35 1018.12 1017.92 1017.63 1017.38 1017.14 1016.69 1016.31 1015.73 1015.39 1014.98 1014.61 1014.21 1013.64 1013.35 1012.55
1019.93 1019.69 1019.62 1019.53 1019.47 1019.66 1019.69 1019.70 1019.69 1019.60 1019.54 1019.43 1019.66 1019.72 1019.32 1019.11 1018.93 1018.57 1018.39 1017.92 1017.77 1017.39 1017.05 1016.71 1016.31 1015.73 1015.15 1014.75 1014.46 1014.06 1013.54 1012.93
1020.30 1020.21 1020.24 1020.26 1020.39 1020.54 1020.61 1020.64 1020.61 1020.55 1020.55 1020.45 1020.47 1020.16 1019.98 1019.77 1019.50 1019.15 1018.83 1018.26 1018.06 1017.79 1017.50 1017.04 1016.61 1016.32 1015.54 1015.04 1014.58 1014.15 1013.54 1013.01
1021.03 1020.98 1020.98 1021.17 1021.22 1021.38 1021.46 1021.33 1021.35 1021.42 1021.35 1021.14 1021.01 1020.75 1020.54 1020.22 1019.93 1019.61 1019.15 1018.76 1018.41 1017.92 1017.46 1017.20 1016.84 1016.33 1015.87 1015.18 1014.58 1014.18 1013.52 1012.92
1021.50 1021.42 1021.47 1021.59 1021.79 1022.00 1022.02 1022.08 1022.11 1022.07 1021.86 1021.54 1021.29 1021.06 1020.82 1020.57 1020.35 1019.98 1019.64 1019.08 1018.65 1018.05 1017.59 1017.07 1016.70 1016.27 1015.82 1015.35 1014.65 1014.13 1013.67 1013.11
1021.86 1021.89 1022.02 1022.07 1022.22 1022.27 1022.42 1022.55 1022.64 1022.51 1022.30 1022.01 1021.65 1021.42 1021.20 1020.88 1020.62 1020.29 1019.99 1019.60 1018.94 1018.25 1017.76 1017.16 1016.62 1016.15 1015.71 1015.22 1014.65 1014.10 1013.52 1012.86
1022.25 1022.28 1022.40 1022.53 1022.70 1022.72 1022.75 1022.69 1022.77 1022.65 1022.47 1022.34 1022.13 1021.87 1021.67 1021.40 1020.91 1020.53 1020.26 1019.73 1019.18 1018.61 1018.03 1017.43 1016.78 1016.20 1015.63 1014.99 1014.41 1013.71 1013.11 1012.58
1022.47 1022.43 1022.85 1022.93 1023.10 1023.27 1023.37 1023.34 1023.15 1023.06 1023.04 1022.85 1022.47 1022.12 1021.82 1021.43 1021.11 1020.81 1020.53 1019.98 1019.28 1018.75 1018.18 1017.47 1016.78 1016.08 1015.42 1014.83 1014.02 1013.24 1012.71 1011.98
1022.91 1022.95 1023.07 1023.20 1023.38 1023.48 1023.62 1023.71 1023.62 1023.53 1023.36 1023.05 1022.69 1022.51 1022.17 1021.79 1021.34 1020.97 1020.57 1019.99 1019.26 1018.80 1018.26 1017.66 1016.72 1015.86 1014.94 1014.28 1013.47 1012.58 1011.98 1011.42
1023.20 1023.26 1023.34 1023.28 1023.33 1023.49 1023.60 1023.73 1023.78 1023.58 1023.49 1023.37 1023.04 1022.68 1022.39 1022.01 1021.56 1021.24 1020.54 1019.86 1019.42 1019.00 1018.50 1017.75 1016.89 1016.02 1014.76 1013.89 1012.75 1011.84 1011.43 1011.04
1023.40 1023.57 1023.79 1023.65 1023.74 1023.78 1023.82 1024.12 1024.01 1023.88 1023.73 1023.53 1023.20 1022.95 1022.54 1022.22 1021.75 1021.42 1020.78 1020.25 1019.75 1019.31 1018.80 1017.94 1016.74 1016.06 1014.86 1013.77 1012.23 1011.05 1011.10 1010.79
1023.59 1023.79 1023.95 1023.92 1023.96 1024.15 1024.22 1024.37 1024.25 1024.05 1023.86 1023.67 1023.53 1023.28 1022.92 1022.39 1022.29 1021.65 1021.03 1020.53 1020.15 1019.72 1019.17 1018.24 1017.11 1016.63 1016.12 1014.61 1012.70 1011.33 1010.93 1010.44
1023.66 1023.82 1024.17 1024.38 1024.25 1024.06 1024.02 1024.11 1024.32 1024.31 1024.30 1024.23 1023.80 1023.52 1023.30 1023.00 1022.72 1022.18 1021.39 1020.71 1020.51 1020.10 1019.44 1018.49 1017.88 1017.15 1016.82 1016.12 1014.36 1013.26 1012.21 1010.43
1023.94 1024.05 1024.47 1024.74 1024.46 1024.46 1024.38 1024.29 1024.82 1025.12 1024.83 1024.50 1023.99 1023.84 1023.67 1023.38 1022.96 1022.22 1021.57 1021.09 1020.73 1020.37 1019.96 1019.18 1018.57 1017.88 1017.12 1016.17 1016.02 1015.15 1013.43 1011.26
1024.15 1024.20 1024.65 1024.74 1024.63 1024.64 1024.73 1024.99 1025.29 1025.26 1024.90 1024.82 1024.60 1024.19 1023.96 1023.59 1022.88 1022.53 1021.97 1021.45 1021.14 1020.89 1020.22 1019.79 1019.15 1018.86 1018.35 1017.24 1016.10 1015.19 1014.13 1013.40
1024.65 1024.62 1024.78 1024.99 1024.83 1024.76 1025.32 1025.54 1025.82 1025.88 1025.46 1025.01 1024.61 1024.37 1024.08 1023.84 1023.34 1023.01 1022.45 1022.05 1021.66 1021.31 1020.78 1020.21 1019.77 1019.47 1019.11 1018.31 1017.24 1016.33 1015.42 1014.65
1024.76 1024.79 1024.99 1025.05 1024.81 1025.13 1025.92 1026.13 1025.91 1025.91 1025.80 1025.52 1025.01 1024.51 1024.36 1024.43 1024.01 1023.46 1023.05 1022.65 1022.38 1021.91 1021.31 1020.66 1020.44 1020.13 1019.76 1019.03 1018.05 1017.06 1016.49 1015.35
1024.71 1024.84 1024.82 1024.87 1025.14 1025.94 1026.31 1026.24 1026.30 1026.10 1025.77 1025.67 1025.58 1025.31 1025.05 1024.74 1024.27 1023.96 1023.63 1023.19 1022.94 1022.40 1021.78 1021.27 1021.07 1020.82 1020.18 1019.38 1018.50 1017.74 1017.03 1016.13
Wind_Speed
7 7 13 16 18 18 17 17 18 19 20 20 20 19 18 18 19 19 19 19 18 18 18 19 18 18 18 17 14 13 7 5
7 6 7 7 6 18 17 18 18 19 20 20 19 17 18 19 18 19 19 18 19 19 18 18 18 17 17 18 19 13 5 6
5 6 6 5 7 10 13 17 18 19 17 21 13 8 8 11 15 17 18 17 19 19 20 19 17 15 17 18 17 6 10 5
5 7 8 7 8 8 9 9 9 10 11 11 8 7 9 11 12 17 17 17 18 19 18 18 14 7 6 11 5 8 6 8
7 7 7 8 6 5 4 5 5 6 10 9 7 6 6 6 5 5 6 13 6 9 9 6 9 8 7 7 7 7 5 6
6 7 7 7 5 5 4 4 5 5 5 7 6 5 6 6 5 6 6 6 8 7 5 8 8 8 10 10 9 7 5 5
6 6 6 6 6 4 4 5 4 4 5 7 6 5 6 6 6 6 7 7 7 8 7 8 8 8 8 9 10 9 10 7
5 7 6 6 5 6 4 4 4 4 5 6 8 6 6 5 5 6 7 7 7 8 8 8 7 8 9 9 10 10 10 10
6 6 6 7 6 5 4 5 5 4 5 6 8 7 7 7 5 6 7 7 8 7 8 7 7 8 10 10 9 10 9 11
6 6 6 7 6 5 4 4 3 3 3 4 7 8 8 6 5 7 8 7 7 7 7 9 10 10 9 9 9 8 11 12
6 6 6 6 6 4 5 5 4 4 4 4 5 7 8 6 5 7 8 7 6 8 9 9 9 9 10 10 10 10 10 11
6 5 6 4 4 3 3 3 3 3 4 5 6 6 9 7 6 8 8 7 9 10 11 11 9 10 11 11 11 10 8 7
5 6 4 3 3 2 2 2 2 2 3 5 7 7 9 8 6 8 8 9 10 11 9 12 9 9 9 10 7 8 5 4
6 6 5 4 2 1 0 1 1 2 3 5 6 8 9 9 9 8 10 8 10 10 11 9 6 10 7 9 7 5 4 12
6 6 6 4 4 2 2 2 2 3 3 4 4 8 8 9 9 8 9 8 8 10 10 12 7 9 11 4 5 4 12 3
5 6 5 3 3 3 4 3 3 3 3 3 4 7 8 9 9 10 10 8 9 9 10 10 9 10 9 6 8 10 4 8
5 6 5 4 5 5 5 5 3 3 3 5 5 6 8 10 11 11 11 8 10 10 10 10 8 7 8 8 8 8 9 7
4 6 5 5 6 7 7 7 4 4 4 4 4 4 6 10 12 10 10 10 11 9 10 11 10 9 8 8 8 5 9 7
5 5 5 5 7 8 6 4 4 4 4 4 6 5 5 8 10 10 8 9 10 9 9 10 11 9 10 8 8 8 7 7
6 6 6 7 8 7 4 4 3 2 4 4 4 4 4 6 7 9 10 10 9 8 7 8 11 9 12 10 8 8 9 8
Wind_Direction
43 42 55 54 59 54 53 49 43 44 42 41 34 31 32 26 23 18 13 11 7 7 3 358 353 348 349 352 335 303 270 253
43 43 43 47 34 54 54 50 45 42 41 40 36 29 28 22 18 12 7 11 1 358 355 353 348 343 344 344 338 316 285 267
48 56 57 56 64 52 48 46 42 39 34 31 27 16 16 22 12 12 5 4 356 352 349 344 342 341 341 339 337 333 335 286
52 48 43 43 47 37 36 34 34 33 26 22 17 14 12 14 10 8 2 1 354 351 347 344 343 337 330 332 325 321 316 313
34 42 41 47 41 35 32 36 31 27 22 17 7 10 4 3 0 358 352 357 352 347 343 344 337 329 323 313 314 311 306 303
51 47 50 45 46 44 38 45 36 34 18 21 11 7 3 3 359 350 351 348 340 341 336 327 326 319 315 311 309 299 298 295
68 69 69 63 59 49 49 47 43 26 21 18 15 10 4 358 352 352 349 345 338 334 329 324 319 318 312 307 306 308 302 299
89 70 68 69 67 63 62 58 38 27 24 15 14 9 360 360 347 353 349 340 337 334 332 326 327 318 309 303 295 295 292 288
96 85 70 65 64 65 57 48 41 37 27 11 9 8 359 345 344 352 346 335 334 335 331 332 322 323 316 309 293 285 284 286
77 91 82 73 67 63 51 46 49 45 22 7 8 8 1 351 346 351 339 335 335 339 338 337 334 327 317 308 304 288 283 276
102 90 80 89 87 84 68 52 39 25 15 10 8 6 3 355 348 347 340 337 345 346 344 333 325 318 313 312 302 284 278 278
100 76 62 79 116 108 87 66 42 28 20 16 3 4 2 0 355 351 349 350 354 350 340 336 322 322 320 306 300 290 283 276
111 95 48 52 41 21 30 64 3 18 11 5 10 1 10 5 355 356 354 355 353 350 338 333 332 343 318 321 291 272 251 356
112 95 71 48 54 357 147 168 107 53 8 359 5 7 11 10 357 356 356 350 355 350 339 338 337 349 328 303 330 337 337 321
126 104 82 54 48 50 55 50 23 12 355 355 346 14 12 9 1 357 353 0 355 343 340 351 336 339 336 305 330 328 328 302
115 112 110 83 55 73 73 86 46 347 339 333 346 14 8 7 2 10 356 1 354 345 338 358 349 345 332 351 320 290 320 315
133 116 110 78 70 67 66 59 40 352 7 354 354 1 11 9 8 7 5 1 358 345 350 357 3 344 336 333 325 315 277 311
119 112 92 77 71 62 59 57 28 6 354 5 3 1 8 13 6 5 2 0 358 345 1 360 3 360 348 339 338 333 327 320
138 123 109 93 75 63 55 59 54 41 10 0 6 9 14 6 360 1 0 359 357 347 9 5 4 359 356 344 340 338 327 316
144 148 118 84 73 66 58 53 48 43 28 15 11 8 359 7 355 3 1 2 358 354 11 14 5 354 359 351 349 342 333 328